Weather History for KUTA - January, 2013

Change the Weather History Date:

Monday, January 14, 2013

  Actual Average (KMEM) Record (KMEM)
Temperature  
Mean Temperature 32 °F 41 °F  
Max Temperature 33 °F 49 °F 75 °F (1937)
Min Temperature 30 °F 32 °F 10 °F (1963)
Degree Days  
Heating Degree Days 34 24  
Month to date heating degree days 336  
Since 1 July heating degree days 1500  
Cooling Degree Days 0 0  
Month to date cooling degree days 0  
Year to date cooling degree days 0  
Moisture  
Dew Point 27 °F    
Average Humidity 86    
Maximum Humidity 93    
Minimum Humidity 75    
Precipitation  
Precipitation 0.06 in 0.12 in 2.43 in (1989)
Month to date precipitation 1.83  
Year to date precipitation 1.83  
Snow  
Snow 0.00 in 0.00 in 0.60 in (1917)
Month to date snowfall 0.8  
Since 1 July snowfall 1.0  
Snow Depth -    
Sea Level Pressure  
Sea Level Pressure 30.32 in    
Wind  
Wind Speed 16 mph (North)    
Max Wind Speed 30 mph    
Max Gust Speed 33 mph    
Visibility 10 miles    
Events Snow    
T = Trace of Precipitation, MM = Missing Value Source: NWS Daily Summary

Daily Weather History Graph

Daily Weather History Graph

Search for Another Location

Airport or City:

Trip Planner

Search our weather history database for the weather conditions in past years. The results will help you decide how hot, cold, wet, or windy it might be!

Date:

Astronomy

Jan. 14, 2013 Rise Set
Actual Time 7:08 AM CST 5:13 PM CST
Civil Twilight 6:40 AM CST 5:40 PM CST
Nautical Twilight 6:09 AM CST 6:11 PM CST
Astronomical Twilight 5:39 AM CST 6:41 PM CST
Moon 8:51 AM CST (1/14) 8:47 PM CST (1/14)
Length of Visible Light 10h 59m
Length of Day
10h 04m
Waxing Crescent, 11% of the Moon is Illuminated
Jan 14
Waxing Crescent
Jan 18
First Quarter
Jan 26
Full
Feb 3
Last Quarter
Feb 10
New

Hourly Weather History & Observations

Time (CST) Temp. Windchill Dew Point Humidity Pressure Visibility Wind Dir Wind Speed Gust Speed Precip Events Conditions
12:15 AM 33.8 °F 23.9 °F 30.2 °F 87% 30.29 in 10.0 mi North 15.0 mph 23.0 mph N/A   Overcast
12:35 AM 33.8 °F 23.9 °F 30.2 °F 87% 30.29 in 10.0 mi North 15.0 mph 19.6 mph N/A   Overcast
12:55 AM 32.0 °F 21.6 °F 30.2 °F 93% 30.28 in 10.0 mi North 15.0 mph 23.0 mph N/A   Overcast
1:15 AM 32.0 °F 20.8 °F 28.4 °F 87% 30.29 in 10.0 mi North 17.3 mph 23.0 mph N/A   Overcast
1:35 AM 32.0 °F 20.5 °F 28.4 °F 87% 30.30 in 10.0 mi North 18.4 mph - N/A   Overcast
1:55 AM 32.0 °F 21.2 °F 28.4 °F 87% 30.30 in 10.0 mi North 16.1 mph - N/A   Overcast
2:15 AM 32.0 °F 20.1 °F 28.4 °F 87% 30.31 in 10.0 mi North 19.6 mph - N/A   Overcast
2:55 AM 32.0 °F 20.8 °F 28.4 °F 87% 30.32 in 10.0 mi North 17.3 mph - N/A   Overcast
3:15 AM 32.0 °F 22.1 °F 28.4 °F 87% 30.31 in 10.0 mi North 13.8 mph 23.0 mph N/A   Overcast
3:35 AM 32.0 °F 21.2 °F 28.4 °F 87% 30.32 in 10.0 mi North 16.1 mph 19.6 mph N/A   Overcast
3:55 AM 32.0 °F 22.1 °F 28.4 °F 87% 30.32 in 10.0 mi North 13.8 mph - N/A   Overcast
4:15 AM 32.0 °F 21.2 °F 28.4 °F 87% 30.31 in 10.0 mi North 16.1 mph 20.7 mph N/A   Overcast
4:35 AM 32.0 °F 20.5 °F 26.6 °F 80% 30.31 in 10.0 mi NNE 18.4 mph - N/A   Overcast
4:55 AM 30.2 °F 17.8 °F 26.6 °F 86% 30.31 in 10.0 mi NNE 19.6 mph 24.2 mph N/A   Overcast
5:15 AM 30.2 °F 17.1 °F 26.6 °F 86% 30.31 in 10.0 mi NNE 21.9 mph - N/A   Overcast
5:35 AM 30.2 °F 17.1 °F 26.6 °F 86% 30.30 in 10.0 mi NNE 21.9 mph 26.5 mph N/A   Overcast
5:55 AM 30.2 °F 17.8 °F 26.6 °F 86% 30.28 in 10.0 mi NNE 19.6 mph - N/A   Mostly Cloudy
6:15 AM 30.2 °F 17.1 °F 26.6 °F 86% 30.29 in 10.0 mi North 21.9 mph - N/A   Overcast
6:35 AM 30.2 °F 17.8 °F 24.8 °F 80% 30.28 in 10.0 mi North 19.6 mph - N/A   Overcast
6:55 AM 30.2 °F 19.3 °F 26.6 °F 86% 30.29 in 10.0 mi North 15.0 mph 23.0 mph N/A   Overcast
7:15 AM 30.2 °F 18.5 °F 26.6 °F 86% 30.29 in 10.0 mi North 17.3 mph 21.9 mph N/A   Overcast
7:35 AM 30.2 °F 18.9 °F 26.6 °F 86% 30.31 in 10.0 mi North 16.1 mph - N/A   Overcast
7:55 AM 30.2 °F 19.3 °F 26.6 °F 86% 30.34 in 10.0 mi North 15.0 mph 20.7 mph N/A   Overcast
8:15 AM 30.2 °F 18.9 °F 26.6 °F 86% 30.35 in 10.0 mi North 16.1 mph - N/A   Overcast
8:35 AM 30.2 °F 19.3 °F 26.6 °F 86% 30.36 in 10.0 mi North 15.0 mph - N/A   Overcast
8:55 AM 30.2 °F 19.3 °F 26.6 °F 86% 30.35 in 10.0 mi North 15.0 mph - N/A   Overcast
9:15 AM 30.2 °F 19.8 °F 26.6 °F 86% 30.35 in 10.0 mi North 13.8 mph - N/A   Overcast
9:35 AM 30.2 °F 18.5 °F 26.6 °F 86% 30.35 in 10.0 mi North 17.3 mph - N/A   Overcast
9:55 AM 30.2 °F 18.5 °F 26.6 °F 86% 30.33 in 10.0 mi North 17.3 mph 21.9 mph N/A   Overcast
10:15 AM 30.2 °F 19.3 °F 26.6 °F 86% 30.35 in 10.0 mi NNW 15.0 mph - N/A   Overcast
10:35 AM 30.2 °F 18.1 °F 26.6 °F 86% 30.41 in 10.0 mi NW 18.4 mph 24.2 mph N/A   Overcast
10:55 AM 30.2 °F 16.2 °F 26.6 °F 86% 30.38 in 10.0 mi NNW 25.3 mph 29.9 mph N/A   Overcast
11:15 AM 30.2 °F 15.2 °F 24.8 °F 80% 30.37 in 10.0 mi North 29.9 mph 33.4 mph N/A Snow Light Snow
11:35 AM 30.2 °F 17.4 °F 23.0 °F 75% 30.40 in 10.0 mi North 20.7 mph 33.4 mph N/A   Scattered Clouds
11:55 AM 30.2 °F 17.1 °F 23.0 °F 75% 30.38 in 10.0 mi North 21.9 mph 31.1 mph N/A   Mostly Cloudy
12:15 PM 30.2 °F 15.9 °F 23.0 °F 75% 30.34 in 10.0 mi North 26.5 mph - N/A   Scattered Clouds
12:35 PM 30.2 °F 17.8 °F 24.8 °F 80% 30.33 in 10.0 mi North 19.6 mph 27.6 mph N/A Snow Light Snow
12:55 PM 30.2 °F 16.8 °F 24.8 °F 80% 30.33 in 10.0 mi North 23.0 mph 26.5 mph N/A   Mostly Cloudy
1:15 PM 30.2 °F 16.5 °F 24.8 °F 80% 30.29 in 10.0 mi North 24.2 mph 28.8 mph N/A   Scattered Clouds
1:35 PM 30.2 °F 18.1 °F 24.8 °F 80% 30.32 in 10.0 mi North 18.4 mph 25.3 mph N/A   Scattered Clouds
2:15 PM 30.2 °F 20.2 °F 26.6 °F 86% 30.28 in 10.0 mi NE 12.7 mph - N/A   Mostly Cloudy
2:55 PM 32.0 °F 23.6 °F 28.4 °F 87% 30.32 in 5.0 mi North 10.4 mph - 0.05 in   Overcast
3:15 PM 32.0 °F 24.8 °F 28.4 °F 87% 30.33 in 5.0 mi North 8.1 mph - 0.01 in Snow Light Snow
3:35 PM 32.0 °F 23.6 °F 28.4 °F 87% 30.34 in 10.0 mi North 10.4 mph - 0.01 in   Scattered Clouds
3:55 PM 32.0 °F 24.8 °F 28.4 °F 87% 30.34 in 10.0 mi North 8.1 mph - 0.01 in   Scattered Clouds
4:15 PM 32.0 °F 24.8 °F 28.4 °F 87% 30.33 in 10.0 mi North 8.1 mph - N/A   Mostly Cloudy
4:35 PM 32.0 °F 24.2 °F 28.4 °F 87% 30.33 in 10.0 mi North 9.2 mph - N/A   Mostly Cloudy
4:55 PM 32.0 °F 24.2 °F 28.4 °F 87% 30.34 in 10.0 mi North 9.2 mph - N/A   Scattered Clouds
5:15 PM 32.0 °F 24.8 °F 28.4 °F 87% 30.34 in 10.0 mi North 8.1 mph - N/A   Clear
5:35 PM 30.2 °F 20.8 °F 28.4 °F 93% 30.33 in 10.0 mi North 11.5 mph - N/A   Clear
5:55 PM 30.2 °F 21.9 °F 26.6 °F 86% 30.33 in 10.0 mi North 9.2 mph - N/A   Clear
6:15 PM 30.2 °F 22.6 °F 28.4 °F 93% 30.33 in 10.0 mi North 8.1 mph - N/A   Clear
6:35 PM 30.2 °F 21.9 °F 28.4 °F 93% 30.33 in 10.0 mi North 9.2 mph - N/A   Clear
6:55 PM 30.2 °F 21.9 °F 28.4 °F 93% 30.33 in 10.0 mi North 9.2 mph - N/A   Clear
7:15 PM 30.2 °F 21.9 °F 26.6 °F 86% 30.33 in 10.0 mi North 9.2 mph - N/A   Clear
7:55 PM 30.2 °F 21.3 °F 26.6 °F 86% 30.31 in 10.0 mi North 10.4 mph - N/A   Clear
8:15 PM 30.2 °F 22.6 °F 26.6 °F 86% 30.31 in 10.0 mi North 8.1 mph - N/A   Clear
8:35 PM 30.2 °F 22.6 °F 26.6 °F 86% 30.30 in 10.0 mi North 8.1 mph - N/A   Clear
8:55 PM 30.2 °F 21.3 °F 26.6 °F 86% 30.29 in 10.0 mi North 10.4 mph - N/A   Clear
9:15 PM 30.2 °F 20.8 °F 26.6 °F 86% 30.29 in 10.0 mi North 11.5 mph - N/A   Clear
9:35 PM 30.2 °F 21.3 °F 26.6 °F 86% 30.28 in 10.0 mi North 10.4 mph - N/A   Clear
9:55 PM 30.2 °F 21.3 °F 26.6 °F 86% 30.28 in 10.0 mi North 10.4 mph - N/A   Clear
10:15 PM 30.2 °F 22.6 °F 26.6 °F 86% 30.28 in 10.0 mi North 8.1 mph - N/A   Clear
10:35 PM 30.2 °F 22.6 °F 26.6 °F 86% 30.29 in 10.0 mi North 8.1 mph - N/A   Clear
10:55 PM 30.2 °F 21.9 °F 26.6 °F 86% 30.29 in 10.0 mi North 9.2 mph - N/A   Clear
11:15 PM 30.2 °F 21.9 °F 26.6 °F 86% 30.29 in 10.0 mi North 9.2 mph - N/A   Clear
11:35 PM 30.2 °F 21.3 °F 26.6 °F 86% 30.29 in 10.0 mi North 10.4 mph - N/A   Clear
11:55 PM 30.2 °F 21.3 °F 26.6 °F 86% 30.29 in 10.0 mi North 10.4 mph - N/A   Clear